This is the latest recevied weather packets stored in our database for station/object WX4HP-13. If no packets are shown the sender has not sent any weather packets the latest 10 day(s).
| Time | Temp. | Humidity | Pressure | Rain* | Wind** | Luminosity | Snow |
|---|---|---|---|---|---|---|---|
| 1777596895 | 13.89° C | 60% | 1013.8 hPa | 0 mm | - | - | - |
| 1777596596 | 13.89° C | 61% | 1013.9 hPa | 0 mm | - | - | - |
| 1777596295 | 13.89° C | 60% | 1013.7 hPa | 0 mm | - | - | - |
| 1777595995 | 14.44° C | 59% | 1013.5 hPa | 0 mm | - | - | - |
| 1777595695 | 14.44° C | 59% | 1013.6 hPa | 0 mm | - | - | - |
| 1777595395 | 14.44° C | 59% | 1013.6 hPa | 0 mm | - | - | - |
| 1777595095 | 14.44° C | 59% | 1013.6 hPa | 0 mm | - | - | - |
| 1777594795 | 14.44° C | 58% | 1013.5 hPa | 0 mm | - | - | - |
| 1777594495 | 14.44° C | 58% | 1013.3 hPa | 0 mm | - | - | - |
| 1777594195 | 15° C | 59% | 1013.2 hPa | 0 mm | - | - | - |
| 1777593895 | 15° C | 58% | 1013.3 hPa | 0 mm | - | - | - |
| 1777593595 | 15° C | 58% | 1013.4 hPa | 0 mm | - | - | - |
| 1777593295 | 15.56° C | 57% | 1013.2 hPa | 0 mm | - | - | - |
| 1777592995 | 15.56° C | 56% | 1013.2 hPa | 0 mm | - | - | - |
| 1777592695 | 15.56° C | 53% | 1013.1 hPa | 0 mm | - | - | - |
| 1777592395 | 15.56° C | 52% | 1013.1 hPa | 0 mm | - | - | - |
| 1777592095 | 15.56° C | 52% | 1013 hPa | 0 mm | - | - | - |
| 1777591795 | 16.11° C | 50% | 1013 hPa | 0 mm | - | - | - |
| 1777591495 | 16.11° C | 50% | 1013 hPa | 0 mm | - | - | - |
| 1777591195 | 16.11° C | 49% | 1012.9 hPa | 0 mm | - | - | - |
| 1777590895 | 16.11° C | 51% | 1013 hPa | 0 mm | - | - | - |
| 1777590595 | 16.11° C | 49% | 1012.9 hPa | 0 mm | - | - | - |
| 1777590295 | 16.11° C | 49% | 1013 hPa | 0 mm | - | - | - |
| 1777589995 | 16.67° C | 49% | 1013.1 hPa | 0 mm | - | - | - |
| 1777589695 | 16.67° C | 48% | 1013.2 hPa | 0 mm | - | - | - |
* Rain latest hour (hover to see other rain measurements)
** Current wind speed in m/s (hover to see current wind gust speed)